DRAGON CRS-30

Last updated on Wed May 01 2024 00:02:07 GMT+0000 (Coordinated Universal Time)

1 59287U 24054A 24120.96661619 .00024915 00000+0 43122-3 0 9994 2 59287 51.6391 194.4959 0003387 121.9323 48.5079 15.50771109 6017
UTC large
Height (km)
Speed (km/s)
/
Latitude / Longitude
Inclination (degrees)
Orbital Period (minutes)
Azimuth
Elevation
Range (km)
Doppler Factor

Next 0 passes for location: London (51.5072 / 0.1276)

Sorry there are no passes over London.